Time,TemperatureF,DewpointF,PressureIn,WindDirection,WindDirectionDegrees,WindSpeedMPH,WindSpeedGustMPH,Humidity,HourlyPrecipIn,Conditions,Clouds,dailyrainin,SoftwareType,DateUTC
2013-01-02 00:02:00,18.1,3.0,30.37,SSW,205,0.0,0.0,53,0.00,,,0.00,weatherlink.com 1.10,2013-01-02 07:02:00,
2013-01-02 00:17:00,18.5,4.0,30.37,SSW,205,0.0,2.0,54,0.00,,,0.00,weatherlink.com 1.10,2013-01-02 07:17:00,
2013-01-02 00:33:00,18.8,5.0,30.36,SSW,205,0.0,1.0,55,0.00,,,0.00,weatherlink.com 1.10,2013-01-02 07:33:00,
2013-01-02 00:48:00,19.2,5.0,30.37,West,281,0.0,3.0,55,0.00,,,0.00,weatherlink.com 1.10,2013-01-02 07:48:00,
2013-01-02 01:03:00,19.2,5.0,30.37,West,281,0.0,0.0,55,0.00,,,0.00,weatherlink.com 1.10,2013-01-02 08:03:00,
2013-01-02 01:18:00,19.4,6.0,30.37,West,281,0.0,0.0,55,0.00,,,0.00,weatherlink.com 1.10,2013-01-02 08:18:00,
2013-01-02 01:33:00,19.2,6.0,30.37,West,281,0.0,2.0,56,0.00,,,0.00,weatherlink.com 1.10,2013-01-02 08:33:00,
2013-01-02 01:48:00,19.4,6.0,30.37,West,281,0.0,1.0,56,0.00,,,0.00,weatherlink.com 1.10,2013-01-02 08:48:00,
2013-01-02 02:03:00,18.8,6.0,30.38,West,281,0.0,0.0,57,0.00,,,0.00,weatherlink.com 1.10,2013-01-02 09:03:00,
2013-01-02 02:18:00,17.8,6.0,30.38,West,281,0.0,0.0,59,0.00,,,0.00,weatherlink.com 1.10,2013-01-02 09:18:00,
2013-01-02 02:48:00,16.1,5.0,30.39,West,281,0.0,0.0,63,0.00,,,0.00,weatherlink.com 1.10,2013-01-02 09:48:00,
2013-01-02 03:03:00,15.7,5.0,30.39,West,281,0.0,1.0,62,0.00,,,0.00,weatherlink.com 1.10,2013-01-02 10:03:00,
2013-01-02 03:18:00,15.4,4.0,30.39,West,281,0.0,2.0,62,0.00,,,0.00,weatherlink.com 1.10,2013-01-02 10:18:00,
2013-01-02 03:33:00,14.6,4.0,30.39,West,281,1.0,2.0,63,0.00,,,0.00,weatherlink.com 1.10,2013-01-02 10:33:00,
2013-01-02 03:48:00,13.6,4.0,30.38,West,281,0.0,0.0,65,0.00,,,0.00,weatherlink.com 1.10,2013-01-02 10:48:00,
2013-01-02 04:03:00,13.1,4.0,30.38,West,281,0.0,1.0,66,0.00,,,0.00,weatherlink.com 1.10,2013-01-02 11:03:00,
2013-01-02 04:18:00,13.0,4.0,30.37,West,281,0.0,1.0,66,0.00,,,0.00,weatherlink.com 1.10,2013-01-02 11:18:00,
2013-01-02 04:33:00,16.6,4.0,30.38,West,279,1.0,7.0,57,0.00,,,0.00,weatherlink.com 1.10,2013-01-02 11:33:00,
2013-01-02 04:48:00,14.9,3.0,30.38,East,86,0.0,3.0,59,0.00,,,0.00,weatherlink.com 1.10,2013-01-02 11:48:00,
2013-01-02 05:03:00,13.2,3.0,30.38,East,85,2.0,3.0,64,0.00,,,0.00,weatherlink.com 1.10,2013-01-02 12:03:00,
2013-01-02 05:18:00,12.3,3.0,30.38,ESE,114,0.0,2.0,66,0.00,,,0.00,weatherlink.com 1.10,2013-01-02 12:18:00,
2013-01-02 05:33:00,12.2,3.0,30.39,ESE,114,0.0,0.0,66,0.00,,,0.00,weatherlink.com 1.10,2013-01-02 12:33:00,
2013-01-02 05:48:00,12.0,2.0,30.39,ESE,114,0.0,1.0,65,0.00,,,0.00,weatherlink.com 1.10,2013-01-02 12:48:00,
2013-01-02 06:03:00,11.9,2.0,30.40,ESE,115,0.0,1.0,65,0.00,,,0.00,weatherlink.com 1.10,2013-01-02 13:03:00,
2013-01-02 06:18:00,11.1,2.0,30.41,ESE,115,0.0,2.0,67,0.00,,,0.00,weatherlink.com 1.10,2013-01-02 13:18:00,
2013-01-02 06:34:00,10.6,2.0,30.41,ESE,115,0.0,1.0,68,0.00,,,0.00,weatherlink.com 1.10,2013-01-02 13:34:00,
2013-01-02 06:49:00,10.3,2.0,30.41,ESE,115,0.0,2.0,69,0.00,,,0.00,weatherlink.com 1.10,2013-01-02 13:49:00,
2013-01-02 07:04:00,10.1,2.0,30.42,ESE,115,0.0,1.0,69,0.00,,,0.00,weatherlink.com 1.10,2013-01-02 14:04:00,
2013-01-02 07:19:00,10.0,2.0,30.42,ESE,115,0.0,1.0,69,0.00,,,0.00,weatherlink.com 1.10,2013-01-02 14:19:00,
2013-01-02 07:34:00,9.4,1.0,30.43,ESE,115,0.0,1.0,70,0.00,,,0.00,weatherlink.com 1.10,2013-01-02 14:34:00,
2013-01-02 07:49:00,9.9,2.0,30.43,ESE,115,0.0,0.0,70,0.00,,,0.00,weatherlink.com 1.10,2013-01-02 14:49:00,
2013-01-02 08:04:00,11.4,2.0,30.43,ESE,115,0.0,2.0,67,0.00,,,0.00,weatherlink.com 1.10,2013-01-02 15:04:00,
2013-01-02 08:19:00,13.4,4.0,30.43,ESE,115,0.0,0.0,65,0.00,,,0.00,weatherlink.com 1.10,2013-01-02 15:19:00,
2013-01-02 08:34:00,16.4,5.0,30.43,ESE,115,0.0,1.0,61,0.00,,,0.00,weatherlink.com 1.10,2013-01-02 15:34:00,
2013-01-02 08:49:00,21.7,6.0,30.42,ESE,115,0.0,0.0,51,0.00,,,0.00,weatherlink.com 1.10,2013-01-02 15:49:00,
2013-01-02 09:04:00,26.4,4.0,30.42,NNW,342,0.0,6.0,39,0.00,,,0.00,weatherlink.com 1.10,2013-01-02 16:04:00,
2013-01-02 09:19:00,28.6,3.0,30.41,NW,309,3.0,6.0,34,0.00,,,0.00,weatherlink.com 1.10,2013-01-02 16:19:00,
2013-01-02 09:34:00,29.5,3.0,30.41,WNW,291,1.0,8.0,32,0.00,,,0.00,weatherlink.com 1.10,2013-01-02 16:34:00,
2013-01-02 09:49:00,28.5,5.0,30.41,SE,128,2.0,6.0,37,0.00,,,0.00,weatherlink.com 1.10,2013-01-02 16:49:00,
2013-01-02 10:04:00,28.1,5.0,30.41,ESE,113,3.0,4.0,37,0.00,,,0.00,weatherlink.com 1.10,2013-01-02 17:04:00,
2013-01-02 10:19:00,28.0,5.0,30.40,SE,136,1.0,4.0,37,0.00,,,0.00,weatherlink.com 1.10,2013-01-02 17:19:00,
2013-01-02 10:49:00,29.5,4.0,30.39,ESE,119,5.0,5.0,34,0.00,,,0.00,weatherlink.com 1.10,2013-01-02 17:49:00,
2013-01-02 11:04:00,29.4,3.0,30.38,South,173,2.0,6.0,33,0.00,,,0.00,weatherlink.com 1.10,2013-01-02 18:04:00,
2013-01-02 11:19:00,30.1,3.0,30.37,SE,132,1.0,5.0,31,0.00,,,0.00,weatherlink.com 1.10,2013-01-02 18:19:00,
2013-01-02 11:34:00,30.8,4.0,30.37,ESE,117,3.0,7.0,32,0.00,,,0.00,weatherlink.com 1.10,2013-01-02 18:34:00,
2013-01-02 11:49:00,31.7,3.0,30.36,East,91,2.0,6.0,30,0.00,,,0.00,weatherlink.com 1.10,2013-01-02 18:49:00,
2013-01-02 12:04:00,31.4,2.0,30.35,East,92,3.0,4.0,29,0.00,,,0.00,weatherlink.com 1.10,2013-01-02 19:04:00,
2013-01-02 12:19:00,32.0,2.0,30.35,SE,131,3.0,4.0,28,0.00,,,0.00,weatherlink.com 1.10,2013-01-02 19:19:00,
2013-01-02 12:34:00,32.7,3.0,30.35,NE,38,2.0,5.0,28,0.00,,,0.00,weatherlink.com 1.10,2013-01-02 19:34:00,
2013-01-02 13:04:00,29.6,4.0,30.35,NE,46,9.0,12.0,33,0.00,,,0.00,weatherlink.com 1.10,2013-01-02 20:04:00,
2013-01-02 13:19:00,28.1,4.0,30.36,East,80,1.0,8.0,36,0.00,,,0.00,weatherlink.com 1.10,2013-01-02 20:19:00,
2013-01-02 13:34:00,28.3,6.0,30.36,ENE,71,2.0,7.0,38,0.00,,,0.00,weatherlink.com 1.10,2013-01-02 20:34:00,
2013-01-02 13:49:00,28.7,6.0,30.36,ENE,74,4.0,7.0,39,0.00,,,0.00,weatherlink.com 1.10,2013-01-02 20:49:00,
2013-01-02 14:04:00,29.6,7.0,30.35,North,355,2.0,4.0,38,0.00,,,0.00,weatherlink.com 1.10,2013-01-02 21:04:00,
2013-01-02 14:19:00,30.0,7.0,30.35,East,90,0.0,6.0,38,0.00,,,0.00,weatherlink.com 1.10,2013-01-02 21:19:00,
2013-01-02 14:34:00,30.7,8.0,30.34,NE,34,1.0,5.0,38,0.00,,,0.00,weatherlink.com 1.10,2013-01-02 21:34:00,
2013-01-02 14:49:00,30.2,7.0,30.35,SE,126,0.0,4.0,37,0.00,,,0.00,weatherlink.com 1.10,2013-01-02 21:49:00,
2013-01-02 15:04:00,30.2,7.0,30.35,SE,128,0.0,3.0,38,0.00,,,0.00,weatherlink.com 1.10,2013-01-02 22:04:00,
2013-01-02 15:19:00,30.5,7.0,30.36,SSE,148,1.0,3.0,37,0.00,,,0.00,weatherlink.com 1.10,2013-01-02 22:19:00,
2013-01-02 15:34:00,30.4,7.0,30.36,SE,130,0.0,4.0,37,0.00,,,0.00,weatherlink.com 1.10,2013-01-02 22:34:00,
2013-01-02 15:49:00,29.7,7.0,30.37,ESE,103,0.0,5.0,39,0.00,,,0.00,weatherlink.com 1.10,2013-01-02 22:49:00,
2013-01-02 16:04:00,29.4,7.0,30.38,SSE,152,1.0,3.0,39,0.00,,,0.00,weatherlink.com 1.10,2013-01-02 23:04:00,
2013-01-02 16:19:00,28.9,7.0,30.38,SE,128,0.0,4.0,40,0.00,,,0.00,weatherlink.com 1.10,2013-01-02 23:19:00,
2013-01-02 16:34:00,28.0,8.0,30.39,SE,125,1.0,4.0,43,0.00,,,0.00,weatherlink.com 1.10,2013-01-02 23:34:00,
2013-01-02 16:49:00,27.2,9.0,30.40,East,88,0.0,4.0,46,0.00,,,0.00,weatherlink.com 1.10,2013-01-02 23:49:00,
2013-01-02 17:20:00,25.8,9.0,30.41,SE,127,2.0,3.0,49,0.00,,,0.00,weatherlink.com 1.10,2013-01-03 00:20:00,
2013-01-02 17:35:00,25.4,9.0,30.42,SE,131,0.0,2.0,49,0.00,,,0.00,weatherlink.com 1.10,2013-01-03 00:35:00,
2013-01-02 17:50:00,24.8,9.0,30.43,SE,131,0.0,1.0,51,0.00,,,0.00,weatherlink.com 1.10,2013-01-03 00:50:00,
2013-01-02 18:05:00,24.4,9.0,30.43,South,174,0.0,1.0,52,0.00,,,0.00,weatherlink.com 1.10,2013-01-03 01:05:00,
2013-01-02 18:20:00,23.7,9.0,30.43,South,174,0.0,1.0,53,0.00,,,0.00,weatherlink.com 1.10,2013-01-03 01:20:00,
2013-01-02 18:35:00,23.1,9.0,30.43,SSW,200,1.0,2.0,54,0.00,,,0.00,weatherlink.com 1.10,2013-01-03 01:35:00,
2013-01-02 18:50:00,22.8,8.0,30.44,SW,236,0.0,4.0,53,0.00,,,0.00,weatherlink.com 1.10,2013-01-03 01:50:00,
2013-01-02 19:05:00,22.2,8.0,30.44,SW,219,0.0,3.0,54,0.00,,,0.00,weatherlink.com 1.10,2013-01-03 02:05:00,
2013-01-02 19:20:00,21.8,8.0,30.44,SW,215,1.0,3.0,55,0.00,,,0.00,weatherlink.com 1.10,2013-01-03 02:20:00,
2013-01-02 19:35:00,21.9,8.0,30.44,SW,218,2.0,3.0,55,0.00,,,0.00,weatherlink.com 1.10,2013-01-03 02:35:00,
2013-01-02 19:50:00,21.7,8.0,30.45,SW,223,0.0,3.0,56,0.00,,,0.00,weatherlink.com 1.10,2013-01-03 02:50:00,
2013-01-02 20:05:00,21.7,8.0,30.46,SW,224,0.0,2.0,55,0.00,,,0.00,weatherlink.com 1.10,2013-01-03 03:05:00,
2013-01-02 20:35:00,20.8,7.0,30.46,SW,224,1.0,1.0,55,0.00,,,0.00,weatherlink.com 1.10,2013-01-03 03:35:00,
2013-01-02 20:50:00,20.5,7.0,30.46,SW,224,0.0,2.0,56,0.00,,,0.00,weatherlink.com 1.10,2013-01-03 03:50:00,
2013-01-02 21:05:00,20.4,7.0,30.47,SW,224,0.0,2.0,56,0.00,,,0.00,weatherlink.com 1.10,2013-01-03 04:05:00,
2013-01-02 21:20:00,19.7,7.0,30.47,WSW,252,0.0,2.0,57,0.00,,,0.00,weatherlink.com 1.10,2013-01-03 04:20:00,
2013-01-02 21:35:00,19.6,7.0,30.48,WSW,246,0.0,2.0,57,0.00,,,0.00,weatherlink.com 1.10,2013-01-03 04:35:00,
2013-01-02 21:50:00,18.6,6.0,30.48,WSW,246,0.0,0.0,58,0.00,,,0.00,weatherlink.com 1.10,2013-01-03 04:50:00,
2013-01-02 22:06:00,17.2,6.0,30.49,WSW,246,0.0,1.0,61,0.00,,,0.00,weatherlink.com 1.10,2013-01-03 05:06:00,
2013-01-02 22:20:00,16.4,5.0,30.50,WSW,246,0.0,1.0,62,0.00,,,0.00,weatherlink.com 1.10,2013-01-03 05:20:00,
2013-01-02 22:35:00,15.7,5.0,30.50,WSW,246,0.0,1.0,62,0.00,,,0.00,weatherlink.com 1.10,2013-01-03 05:35:00,
2013-01-02 22:50:00,15.2,4.0,30.50,WSW,246,0.0,1.0,62,0.00,,,0.00,weatherlink.com 1.10,2013-01-03 05:50:00,
2013-01-02 23:05:00,15.0,4.0,30.52,WSW,246,0.0,1.0,61,0.00,,,0.00,weatherlink.com 1.10,2013-01-03 06:05:00,
2013-01-02 23:20:00,14.7,4.0,30.52,WSW,246,0.0,0.0,62,0.00,,,0.00,weatherlink.com 1.10,2013-01-03 06:20:00,
2013-01-02 23:35:00,14.7,4.0,30.52,WSW,246,0.0,1.0,63,0.00,,,0.00,weatherlink.com 1.10,2013-01-03 06:35:00,
2013-01-02 23:50:00,14.7,5.0,30.53,WSW,246,0.0,0.0,64,0.00,,,0.00,weatherlink.com 1.10,2013-01-03 06:50:00,